Location: Unspecified
(0.0000°N, 0.0000°E)
Time: 00:24:44
(UTC+01:00)

Cosmos 1733 Rocket - Visible Passes

Search period start: 12 February 2016 00:00
Search period end: 22 February 2016 00:00
Orbit: 604 x 628 km, 82.5° (Epoch: 11 February)

Date Brightness Start Highest point End Pass type
(mag) Time Alt. Az. Time Alt. Az. Time Alt. Az.
12 Feb 3.0 06:06:36 10° NNW 06:11:00 65° W 06:15:24 10° S visible
13 Feb 6.2 04:48:58 10° ENE 04:49:59 11° E 04:50:59 10° E visible
13 Feb 3.9 06:23:40 10° NW 06:27:29 28° W 06:31:19 10° SSW visible
14 Feb 5.3 05:04:10 16° NE 05:06:28 24° E 05:10:01 10° SE visible
14 Feb 4.8 06:41:54 10° WNW 06:43:59 13° W 06:46:04 10° WSW visible
15 Feb 3.8 05:22:07 45° NE 05:22:57 52° E 05:27:17 10° SSE visible
16 Feb 3.1 05:39:55 61° SW 05:39:55 61° SW 05:43:51 10° S visible
17 Feb 4.5 05:57:38 22° SW 05:57:38 22° SW 05:59:47 10° SSW visible
18 Feb 6.1 04:38:04 11° SE 04:38:04 11° SE 04:38:24 10° SE visible
19 Feb 5.9 04:55:34 11° SSE 04:55:34 11° SSE 04:55:41 10° SSE visible
